Weather History for YPXM - November, 2012

Change the Weather History Date:

Thursday, November 22, 2012

  Actual Average Record
Temperature  
Mean Temperature 79 °F -  
Max Temperature 83 °F 78 °F 83 °F (2012)
Min Temperature 75 °F 70 °F 68 °F (2000)
Cooling Degree Days 14    
Growing Degree Days 29 (Base 50)    
Moisture  
Dew Point 65 °F    
Average Humidity 64    
Maximum Humidity 83    
Minimum Humidity 25    
Precipitation  
Precipitation 0.00 in - - ()
Sea Level Pressure  
Sea Level Pressure 29.89 in    
Wind  
Wind Speed 9 mph ()    
Max Wind Speed 15 mph    
Max Gust Speed -    
Visibility 6.2 miles    
Events      
Averages and records for this station are not official NWS values.
T = Trace of Precipitation, MM = Missing Value Source: Averaged Metar Reports

Daily Weather History Graph

Daily Weather History Graph

Search for Another Location

Airport or City:

Trip Planner

Search our weather history database for the weather conditions in past years. The results will help you decide how hot, cold, wet, or windy it might be!

Date:

Astronomy

Nov. 22, 2012 Rise Set
Actual Time 5:24 AM CXT 6:02 PM CXT
Civil Twilight 5:01 AM CXT 6:25 PM CXT
Nautical Twilight 4:35 AM CXT 6:51 PM CXT
Astronomical Twilight 4:08 AM CXT 7:18 PM CXT
Moon 1:07 PM CXT (11/22) 12:45 AM CXT (11/22)
Length of Visible Light 13h 23m
Length of Day
12h 38m
Waxing Gibbous, 66% of the Moon is Illuminated
Nov 22
Waxing Gibbous
Nov 28
Full
Dec 6
Last Quarter
Dec 13
New
Dec 20
First Quarter

Hourly Weather History & Observations

Time (CXT) Temp. Heat Index Dew Point Humidity Pressure Visibility Wind Dir Wind Speed Gust Speed Precip Events Conditions
12:00 AM 76 °F - 68 °F 71% 29.89 in - SE 9.2 mph - -  
12:00 AM 75.2 °F - 68.0 °F 78% 29.92 in 6.2 mi SE 9.2 mph - N/A   Scattered Clouds
1:00 AM 76 °F - 67 °F 68% 29.87 in - SE 9.2 mph - -  
1:00 AM 75.2 °F - 68.0 °F 78% 29.92 in 6.2 mi SE 9.2 mph - N/A   Scattered Clouds
2:00 AM 75.2 °F - 68.0 °F 78% 29.89 in 6.2 mi SE 8.1 mph - N/A   Mostly Cloudy
3:00 AM 75 °F - 68 °F 74% 29.85 in - SE 8.1 mph - -  
3:00 AM 75.2 °F - 68.0 °F 78% 29.89 in 6.2 mi SE 8.1 mph - N/A   Scattered Clouds
4:00 AM 75 °F - 69 °F 78% 29.85 in - SE 6.9 mph - -  
4:00 AM 75.2 °F - 69.8 °F 83% 29.89 in 6.2 mi SE 6.9 mph - N/A   Mostly Cloudy
5:00 AM 75.2 °F - 69.8 °F 83% 29.89 in 6.2 mi SE 8.1 mph - N/A   Mostly Cloudy
6:00 AM 76 °F - 69 °F 73% 29.88 in - SE 8.1 mph - -   Overcast
6:00 AM 75.2 °F - 69.8 °F 83% 29.92 in 6.2 mi SE 8.1 mph - N/A   Mostly Cloudy
7:00 AM 79 °F - 68 °F 62% 29.89 in - SE 11.5 mph - -  
7:00 AM 78.8 °F - 68.0 °F 69% 29.92 in 6.2 mi SE 11.5 mph - N/A   Scattered Clouds
8:00 AM 78.8 °F - 69.8 °F 74% 29.92 in 6.2 mi SE 11.5 mph - N/A   Overcast
9:00 AM 81 °F - 53 °F 27% 29.91 in - SE 12.7 mph - -  
9:00 AM 80.6 °F 80.3 °F 53.6 °F 39% 29.95 in 6.2 mi SE 12.7 mph - N/A   Scattered Clouds
10:00 AM 81 °F - 68 °F 56% 29.90 in - SE 11.5 mph - -  
10:00 AM 80.6 °F 83.2 °F 68.0 °F 65% 29.95 in 6.2 mi SE 11.5 mph - N/A   Scattered Clouds
11:00 AM 80.6 °F 81.1 °F 59.0 °F 48% 29.92 in 6.2 mi SE 13.8 mph - N/A   Mostly Cloudy
12:00 PM 81 °F - 53 °F 27% 29.88 in - SE 15.0 mph - -  
12:00 PM 80.6 °F 80.3 °F 53.6 °F 39% 29.92 in 6.2 mi SE 15.0 mph - N/A   Scattered Clouds
1:00 PM 82 °F - 52 °F 25% 29.86 in - SE 12.7 mph - -  
1:00 PM 82.4 °F - 51.8 °F 35% 29.89 in 6.2 mi SE 12.7 mph - N/A   Mostly Cloudy
2:00 PM 80.6 °F 81.8 °F 62.6 °F 54% 29.86 in 6.2 mi SSE 12.7 mph - N/A   Scattered Clouds
3:00 PM 80 °F - 61 °F 43% 29.82 in - SSE 11.5 mph - -   Overcast
3:00 PM 80.6 °F 81.5 °F 60.8 °F 51% 29.86 in 6.2 mi SSE 11.5 mph - N/A   Mostly Cloudy
4:00 PM 81 °F - 63 °F 44% 29.81 in - SSE 10.4 mph - -  
4:00 PM 80.6 °F 81.8 °F 62.6 °F 54% 29.83 in 6.2 mi SSE 10.4 mph - N/A   Scattered Clouds
5:00 PM 78.8 °F - 66.2 °F 65% 29.86 in 6.2 mi SE 13.8 mph - N/A   Scattered Clouds
6:00 PM 76 °F - 66 °F 65% 29.83 in - SE 11.5 mph - -  
6:00 PM 77.0 °F - 66.2 °F 69% 29.86 in 6.2 mi SE 11.5 mph - N/A   Scattered Clouds
7:00 PM 76 °F - 68 °F 70% 29.86 in - SE 11.5 mph - -  
7:00 PM 77.0 °F - 68.0 °F 74% 29.89 in 6.2 mi SE 11.5 mph - N/A   Scattered Clouds
8:00 PM 77.0 °F - 68.0 °F 74% 29.92 in 6.2 mi SE 11.5 mph - N/A   Scattered Clouds
9:00 PM 76 °F - 69 °F 72% 29.91 in - SE 9.2 mph - -  
9:00 PM 77.0 °F - 68.0 °F 74% 29.95 in 6.2 mi SE 9.2 mph - N/A   Scattered Clouds
10:00 PM 76 °F - 69 °F 75% 29.91 in - SE 10.4 mph - -  
10:00 PM 75.2 °F - 69.8 °F 83% 29.95 in 6.2 mi SE 10.4 mph - N/A   Scattered Clouds
11:00 PM 75.2 °F - 69.8 °F 83% 29.95 in 6.2 mi SE 9.2 mph - N/A   Mostly Cloudy